Merced, CA

11:24 AM PDT on June 20, 2018 (GMT -0700)
Merced Municipal-Macready

Weather History for KMCE - October, 2017

Change the Weather History Date:

Tuesday, October 10, 2017

  Actual Average Record
Temperature  
Mean Temperature 64 °F 66 °F  
Max Temperature 85 °F 81 °F 94 °F (2015)
Min Temperature 43 °F 50 °F 43 °F (2017)
Degree Days  
Heating Degree Days 1    
Month to date heating degree days 14  
Since 1 July heating degree days 23  
Cooling Degree Days 0    
Month to date cooling degree days 7  
Year to date cooling degree days 1824  
Growing Degree Days 15 (Base 50)    
Moisture  
Dew Point 33 °F    
Average Humidity 38    
Maximum Humidity 66    
Minimum Humidity 10    
Precipitation  
Precipitation 0.00 in 0.02 in 0.88 in (2000)
Month to date precipitation 0.00 0.11  
Year to date precipitation 11.82 9.10  
Snow  
Snow 0.00 in - - ()
Month to date snowfall 0.0  
Since 1 July snowfall 0.0  
Since 1 September snowfall 0.0  
Snow Depth 0.00 in    
Sea Level Pressure  
Sea Level Pressure 29.90 in    
Wind  
Wind Speed 4 mph (SE)    
Max Wind Speed 13 mph    
Max Gust Speed 15 mph    
Visibility 10 miles    
Events      
T = Trace of Precipitation, MM = Missing Value Source: NWS Daily Summary

Daily Weather History Graph

Daily Weather History Graph

Search for Another Location

Airport or City:

Astronomy

Oct. 10, 2017 Rise Set
Actual Time 7:05 AM PDT 6:31 PM PDT
Civil Twilight 6:39 AM PDT 6:57 PM PDT
Nautical Twilight 6:09 AM PDT 7:27 PM PDT
Astronomical Twilight 5:39 AM PDT 7:57 PM PDT
Moon 10:45 PM PDT (10/10) 12:21 PM PDT (10/10)
Length of Visible Light 12h 18m
Length of Day
11h 25m
Waning Gibbous, 70% of the Moon is Illuminated
Oct 10
Waning Gibbous
Oct 12
Last Quarter
Oct 19
New
Oct 27
First Quarter
Nov 3
Full

Hourly Weather History & Observations

Time (PDT) Temp. Dew Point Humidity Pressure Visibility Wind Dir Wind Speed Gust Speed Precip Events Conditions
12:53 AM 55.0 °F 35.1 °F 47% 29.94 in 7.0 mi Calm Calm - N/A   Clear
1:53 AM 52.0 °F 35.1 °F 53% 29.95 in 9.0 mi Calm Calm - N/A   Clear
2:53 AM 53.1 °F 36.0 °F 52% 29.94 in 9.0 mi Calm Calm - N/A   Clear
3:53 AM 48.0 °F 35.1 °F 61% 29.94 in 10.0 mi Calm Calm - N/A   Clear
4:53 AM 48.9 °F 37.9 °F 66% 29.94 in 10.0 mi North 3.5 mph - N/A   Clear
5:53 AM 50.0 °F 36.0 °F 59% 29.94 in 10.0 mi Calm Calm - N/A   Clear
6:53 AM 46.9 °F 35.1 °F 63% 29.94 in 10.0 mi Calm Calm - N/A   Clear
7:53 AM 50.0 °F 34.0 °F 54% 29.96 in 7.0 mi Calm Calm - N/A   Clear
8:53 AM 55.9 °F 36.0 °F 47% 29.96 in 10.0 mi SE 4.6 mph - N/A   Clear
9:53 AM 64.9 °F 36.0 °F 34% 29.96 in 10.0 mi ESE 5.8 mph - N/A   Clear
10:53 AM 71.1 °F 35.1 °F 27% 29.95 in 10.0 mi SSE 6.9 mph - N/A   Clear
11:53 AM 75.9 °F 33.1 °F 21% 29.93 in 10.0 mi SE 6.9 mph - N/A   Clear
12:53 PM 79.0 °F 32.0 °F 18% 29.91 in 10.0 mi SSE 6.9 mph - N/A   Clear
1:53 PM 82.0 °F 28.9 °F 14% 29.88 in 10.0 mi SSE 8.1 mph - N/A   Clear
2:53 PM 84.0 °F 26.1 °F 12% 29.85 in 10.0 mi South 9.2 mph - N/A   Clear
3:53 PM 82.9 °F 27.0 °F 13% 29.84 in 10.0 mi SE 6.9 mph - N/A   Clear
4:53 PM 84.0 °F 23.0 °F 11% 29.83 in 10.0 mi SE 5.8 mph - N/A   Clear
5:53 PM 80.1 °F 30.9 °F 17% 29.83 in 10.0 mi SSE 4.6 mph - N/A   Clear
6:53 PM 72.0 °F 33.1 °F 24% 29.82 in 10.0 mi East 3.5 mph - N/A   Clear
7:53 PM 70.0 °F 37.0 °F 30% 29.83 in 10.0 mi Calm Calm - N/A   Clear
8:53 PM 64.9 °F 37.0 °F 36% 29.84 in 10.0 mi NNW 4.6 mph - N/A   Clear
9:53 PM 63.0 °F 37.0 °F 38% 29.85 in 10.0 mi NNW 6.9 mph - N/A   Clear
10:53 PM 64.9 °F 34.0 °F 32% 29.86 in 10.0 mi North 8.1 mph - N/A   Clear
11:53 PM 62.1 °F 33.1 °F 34% 29.85 in 10.0 mi NNW 9.2 mph - N/A   Clear